SCP
0 0 0 0 0 0 0 0 0 0 0 0 0 0 0 0 0 0 0 0 0 0 0 0 0 0 0 0 0 0 0 0 0 0 0 0 0 0
0 0 0 0 0 0 0 0 0 0 0 0 0 0 0 0 0 0 0 0 0 0 0 0 0 0 0 0 0 0 0 0 0 0 0 0 0 0
0 0 0 0 0 -0 -0 0 0 0 0 0 0 0 0 0 0 0 0 0 0 0 0 0 0 0 0 0 0 0 0 0 0 0 0 0 0 0
0 -0 0 0 0 0 0 0 0 0 0 0 0 0 0 0 0 0 0 0 0 0 0 0 0 0 0 0 0 0 0 0 0 0 0 0 0 0
0 0 0 0 0 0 0 0 0 0 0 0 0 0 0 0 0 0 0 0 0 0 0 0 0 0 0 0 0 0 0 0 0 0 0 0 0 0
0 0 0 0 0 0 0 0 0 0 0 0 0 0 0 0 0 0 0 0 0 0 0 0 0 0 0 0 0 0 0 0 0 0 0 0 0 0
0 0 0 0 0 0 0 0 0 0 0 0 0 0 0 0 0 0 0 0 0 0 0 0 0 0 0 0 0 0 0 0 0 0 0 0 0 0
0 -0 -0 -0 -0 0 0 0 0 0 0 0 0 0 0 0 0 0 0 0 0 0 0 0 0 0 0 0 0 0 0 0 0 0 0 0 0 0
-0 -0 -0 0 0 0 0 0 0 0 0 0 0 0 0 0 0 0 0 0 0 0 0 0 0 0 0 0 0 0 0 0 0 0 0 0 0 0
-0 -0 0 0 0 0 0 0 0 0 0 0 0 0 0 0 0 0 0 0 0 0 0 0 0 0 0 0 0 0 0 0 0 0 0 0 0 0
0 0 0 0 0 0 0 0 0 0 0 0 0 0 0 0 0 0 0 0 0 0 0 0 0 0 0 0 0 0 0 0 0 0 0 0 0 0
0 0 0 0 0 0 0 0 0 0 0 0 0 0 0 0 0 0 0 0 0 0 0 0 0 0 0 0 0 0 0 0 0 0 0 0 0 0
0 0 -0 -0 0 0 0 0 0 0 0 0 0 0 0 0 0 0 0 0 0 0 0 0 0 0 0 0 0 0 0 0 0 0 0 0 0 0
-0 -0 0 0 0 0 0 0 0 0 0 0 0 0 0 0 0 0 0 0 0 0 0 0 0 0 0 0 0 0 0 0 0 0 0 0 0 0
-0 -0 -0 0 0 0 0 0 0 0 0 0 0 0 0 0 0 0 0 0 0 0 0 0 0 0 0 0 0 0 0 0 0 0 0 0 0 0
-0 0 0 0 0 0 0 0 0 0 0 0 0 0 0 0 0 0 0 0 0 0 0 0 0 0 0 0 0 0 0 0 0 0 0 0 0 0
0 0 0 0 0 0 0 0 0 0 0 0 0 0 0 0 0 0 0 0 0 0 0 0 0 0 0 0 0 0 0 0 0 0 0 0 0 0
0 0 0 0 0 0 0 0 0 0 0 0 0 0 0 0 0 0 0 0 0 0 0 0 0 0 0 0 0 0 0 0 0 0 0 0 0 0
0 0 0 0 0 0 0 0 0 0 0 0 0 0 0 0 0 0 0 0 0 0 0 0 0 0 0 0 0 0 0 0 0 0 0 0 0 0
0 0 0 0 0 0 0 0 0 0 0 0 0 0 0 0 0 0 0 0 0 0 0 0 0 0 0 0 0 0 -0 -0 -0 0 0 0 0 0
0 0 0 0 0 0 0 0 0 0 0 0 0 0 0 0 0 0 0 0 0 0 0 0 0 0 0 0 0 -0 0 -0 -0 -0 -0 0 0 0
0 0 0 0 0 0 0 0 0 0 0 0 0 0 0 0 0 0 0 0 0 0 0 0 0 0 0 0 0 0 0 -0 -0 0 0 -0 0 0
0 0 0 0 0 0 0 0 0 0 0 0 0 0 0 0 0 0 0 0 0 0 0 0 0 0 0 0 -0 -0 0 0 -0 0 0 0 0 -0
Wind_Speed_500mb
40 40 52 70 54 38 27 32 37 29 33 26 20 34 35 38 37 34 29 40 31 28 30 30 28 33 33 27 26 28 28 31 36 33 29 22 12 5
30 32 47 70 52 45 39 34 34 24 23 23 24 15 22 23 27 29 37 39 33 35 33 33 34 36 32 27 28 30 31 35 34 30 22 18 6 9
36 36 33 60 53 43 46 51 38 28 16 18 20 18 16 24 30 34 37 39 40 39 40 39 40 35 28 27 29 31 35 33 31 28 22 11 10 16
39 45 51 66 65 50 56 41 30 26 33 43 46 50 51 44 40 41 43 42 44 43 40 41 38 28 26 28 32 35 35 32 28 25 18 9 12 11
29 41 48 53 77 58 45 28 34 31 31 34 37 46 54 59 51 45 43 43 41 40 39 35 28 28 32 34 37 36 35 30 29 27 24 22 25 18
10 6 20 46 45 18 19 30 28 23 23 27 31 29 30 33 36 36 33 31 32 32 27 23 28 31 33 35 34 38 33 30 28 30 28 28 25 19
29 30 25 24 21 16 20 25 22 22 20 22 22 21 19 19 19 19 19 19 18 20 19 20 28 25 28 31 28 30 35 32 32 32 31 30 30 27
33 31 27 25 20 16 10 9 10 10 9 5 1 3 5 8 8 6 5 11 9 28 24 17 30 30 22 23 26 33 34 35 34 36 33 30 27 25
31 27 26 21 14 13 12 11 11 10 10 9 9 6 10 12 12 13 12 18 13 21 27 23 17 29 17 23 32 27 29 34 30 37 32 31 27 28
28 24 23 25 22 18 14 9 6 5 5 7 7 7 10 14 16 18 20 20 18 18 25 12 16 22 19 21 27 31 30 29 31 36 37 31 27 29
33 27 22 20 19 12 7 3 3 3 1 1 4 7 9 11 9 7 8 8 4 13 20 12 14 22 22 14 21 25 21 20 26 31 36 34 31 32
27 23 19 15 11 9 9 11 10 12 12 16 19 22 25 30 29 15 10 8 9 5 13 21 19 22 12 11 13 22 28 22 31 35 36 30 28 29
25 22 18 12 7 7 11 12 11 6 6 9 10 11 12 14 15 14 8 6 10 13 18 18 19 18 19 27 27 27 21 23 30 34 31 28 31 23
26 22 17 10 8 6 7 8 8 10 8 6 7 8 10 10 12 14 12 14 15 18 22 21 22 24 26 30 33 32 28 32 33 29 28 22 21 25
21 16 13 12 13 12 12 11 13 9 9 7 6 7 8 13 11 12 12 14 16 14 13 20 23 26 27 30 33 34 35 32 25 19 24 26 27 26
18 16 15 14 13 14 14 11 8 7 7 6 6 8 12 12 13 16 16 14 15 16 19 24 25 26 28 29 33 33 26 26 29 29 31 35 32 19
16 16 15 13 14 13 12 13 13 11 9 7 3 12 13 11 9 19 18 17 16 22 26 22 24 29 30 27 30 27 25 27 28 36 36 35 28 20
16 16 14 11 10 9 9 11 12 10 8 10 15 15 14 14 14 12 17 15 19 20 23 23 33 30 24 21 19 22 25 29 36 36 33 34 31 23
14 12 9 7 8 8 7 7 7 9 11 12 14 14 14 13 11 9 12 14 16 20 22 26 24 27 31 32 28 27 32 31 32 34 33 31 39 33
10 7 6 6 6 6 7 8 9 12 12 11 13 14 16 17 15 16 16 18 20 24 24 23 26 28 32 37 42 39 27 33 30 36 42 38 31 29
5 3 4 5 5 7 8 8 7 8 10 10 13 14 15 16 15 17 20 20 22 23 24 26 29 28 31 33 36 38 34 22 28 37 38 39 38 35
2 2 4 4 6 7 9 9 8 10 9 12 12 14 16 15 17 19 21 22 24 26 29 32 32 31 27 29 38 37 35 29 29 29 31 31 36 38
2 3 3 3 5 7 8 7 6 8 10 11 13 15 20 20 22 24 26 28 29 30 31 34 32 29 27 28 31 33 36 30 30 33 32 25 31 37
Wind_Direction_500mb
231 242 236 213 201 202 203 185 200 160 190 198 212 229 232 243 251 256 257 264 264 265 273 275 281 301 307 292 290 297 302 309 317 316 315 308 297 298
236 247 232 216 196 197 197 178 183 177 138 164 200 236 232 241 259 248 248 257 267 273 273 273 286 296 292 282 290 298 303 311 315 314 308 299 333 249
242 235 233 210 193 198 189 175 179 195 212 198 227 249 247 262 273 265 254 260 264 270 271 274 282 285 279 282 288 295 303 308 309 311 301 300 242 253
257 244 242 212 199 202 186 198 217 263 238 244 263 264 272 273 278 264 255 259 266 270 269 271 276 273 273 278 286 296 299 300 302 300 288 261 267 277
250 253 239 224 205 198 193 234 255 251 240 243 256 259 259 264 265 267 264 267 269 272 272 272 264 269 279 285 291 291 294 296 296 291 287 279 269 283
250 229 231 200 176 180 217 232 231 228 235 254 257 263 269 268 267 268 269 271 269 270 274 276 281 280 279 281 281 287 286 287 286 287 291 288 279 270
122 144 155 165 178 190 218 231 231 250 261 257 256 258 260 265 269 275 274 278 283 274 271 275 281 288 291 289 286 276 281 287 286 286 284 283 279 280
148 149 147 147 153 163 178 207 219 222 232 232 253 331 297 288 290 304 290 271 283 276 284 283 283 287 281 284 271 270 281 277 280 280 283 287 287 286
148 142 134 128 139 152 139 137 138 147 156 151 181 172 236 267 272 279 288 261 240 278 281 283 271 287 291 268 284 285 268 270 276 283 292 285 286 286
117 117 126 128 123 117 117 115 127 165 192 221 237 255 285 300 292 275 265 265 282 276 299 307 298 294 286 299 295 299 292 269 274 283 295 290 286 286
122 125 125 117 111 105 101 89 106 115 211 345 356 340 329 354 10 60 10 22 327 317 315 342 307 283 281 280 282 291 310 311 301 302 303 292 283 284
124 116 111 112 114 109 95 92 82 76 48 31 29 27 16 6 12 34 31 14 338 303 325 336 313 324 323 265 272 293 304 305 307 318 316 318 298 288
125 124 114 103 110 148 152 152 151 171 134 63 39 31 25 12 352 355 345 345 330 316 309 318 312 312 305 305 305 312 305 297 288 288 289 294 301 303
121 117 112 102 76 71 86 113 134 109 109 63 36 8 8 0 347 332 345 339 325 314 314 308 305 303 301 299 303 311 304 301 302 298 302 292 302 305
110 97 83 66 62 72 71 80 78 73 65 60 36 1 317 305 327 339 326 320 324 320 313 315 316 310 302 301 302 308 313 315 309 298 306 304 293 292
103 91 73 68 80 78 74 70 65 65 86 81 39 344 325 343 339 339 327 319 338 327 318 319 319 310 311 304 304 305 311 304 305 303 300 296 296 278
102 88 75 83 85 76 65 57 52 55 48 36 319 308 337 345 352 341 349 349 333 322 326 329 316 313 317 309 309 314 310 301 303 310 310 310 313 310
102 76 73 88 92 82 58 43 42 38 24 355 7 9 17 2 349 339 326 324 331 336 332 323 322 330 337 339 311 309 303 307 310 317 321 322 319 312
107 85 77 102 106 80 60 45 25 11 17 15 5 11 6 1 358 335 335 344 343 326 314 318 329 332 331 327 321 318 319 317 317 322 316 311 309 320
117 87 75 101 101 66 47 41 29 20 16 14 17 10 5 358 356 355 349 340 331 324 335 334 321 319 319 317 315 321 321 315 320 316 319 310 302 303
125 100 72 99 79 48 38 40 34 20 3 5 4 357 353 359 354 342 335 334 334 336 332 324 320 319 314 312 312 317 328 335 310 320 324 330 332 324
159 133 49 77 56 37 37 35 31 27 358 354 352 351 351 351 337 337 339 340 339 340 338 336 335 332 332 323 318 321 325 325 320 312 320 322 319 320
255 211 4 58 46 42 41 35 27 355 350 352 355 357 5 357 348 358 356 344 341 333 333 336 337 335 327 322 323 321 317 318 328 325 319 322 314 323
Wind_Speed_850mb
40 40 52 70 54 38 27 32 37 29 33 26 20 34 35 38 37 34 29 40 31 28 30 30 28 33 33 27 26 28 28 31 36 33 29 22 12 5
30 32 47 70 52 45 39 34 34 24 23 23 24 15 22 23 27 29 37 39 33 35 33 33 34 36 32 27 28 30 31 35 34 30 22 18 6 9
36 36 33 60 53 43 46 51 38 28 16 18 20 18 16 24 30 34 37 39 40 39 40 39 40 35 28 27 29 31 35 33 31 28 22 11 10 16
39 45 51 66 65 50 56 41 30 26 33 43 46 50 51 44 40 41 43 42 44 43 40 41 38 28 26 28 32 35 35 32 28 25 18 9 12 11
29 41 48 53 77 58 45 28 34 31 31 34 37 46 54 59 51 45 43 43 41 40 39 35 28 28 32 34 37 36 35 30 29 27 24 22 25 18
10 6 20 46 45 18 19 30 28 23 23 27 31 29 30 33 36 36 33 31 32 32 27 23 28 31 33 35 34 38 33 30 28 30 28 28 25 19
29 30 25 24 21 16 20 25 22 22 20 22 22 21 19 19 19 19 19 19 18 20 19 20 28 25 28 31 28 30 35 32 32 32 31 30 30 27
33 31 27 25 20 16 10 9 10 10 9 5 1 3 5 8 8 6 5 11 9 28 24 17 30 30 22 23 26 33 34 35 34 36 33 30 27 25
31 27 26 21 14 13 12 11 11 10 10 9 9 6 10 12 12 13 12 18 13 21 27 23 17 29 17 23 32 27 29 34 30 37 32 31 27 28
28 24 23 25 22 18 14 9 6 5 5 7 7 7 10 14 16 18 20 20 18 18 25 12 16 22 19 21 27 31 30 29 31 36 37 31 27 29
33 27 22 20 19 12 7 3 3 3 1 1 4 7 9 11 9 7 8 8 4 13 20 12 14 22 22 14 21 25 21 20 26 31 36 34 31 32
27 23 19 15 11 9 9 11 10 12 12 16 19 22 25 30 29 15 10 8 9 5 13 21 19 22 12 11 13 22 28 22 31 35 36 30 28 29
25 22 18 12 7 7 11 12 11 6 6 9 10 11 12 14 15 14 8 6 10 13 18 18 19 18 19 27 27 27 21 23 30 34 31 28 31 23
26 22 17 10 8 6 7 8 8 10 8 6 7 8 10 10 12 14 12 14 15 18 22 21 22 24 26 30 33 32 28 32 33 29 28 22 21 25
21 16 13 12 13 12 12 11 13 9 9 7 6 7 8 13 11 12 12 14 16 14 13 20 23 26 27 30 33 34 35 32 25 19 24 26 27 26
18 16 15 14 13 14 14 11 8 7 7 6 6 8 12 12 13 16 16 14 15 16 19 24 25 26 28 29 33 33 26 26 29 29 31 35 32 19
16 16 15 13 14 13 12 13 13 11 9 7 3 12 13 11 9 19 18 17 16 22 26 22 24 29 30 27 30 27 25 27 28 36 36 35 28 20
16 16 14 11 10 9 9 11 12 10 8 10 15 15 14 14 14 12 17 15 19 20 23 23 33 30 24 21 19 22 25 29 36 36 33 34 31 23
14 12 9 7 8 8 7 7 7 9 11 12 14 14 14 13 11 9 12 14 16 20 22 26 24 27 31 32 28 27 32 31 32 34 33 31 39 33
10 7 6 6 6 6 7 8 9 12 12 11 13 14 16 17 15 16 16 18 20 24 24 23 26 28 32 37 42 39 27 33 30 36 42 38 31 29
5 3 4 5 5 7 8 8 7 8 10 10 13 14 15 16 15 17 20 20 22 23 24 26 29 28 31 33 36 38 34 22 28 37 38 39 38 35
2 2 4 4 6 7 9 9 8 10 9 12 12 14 16 15 17 19 21 22 24 26 29 32 32 31 27 29 38 37 35 29 29 29 31 31 36 38
2 3 3 3 5 7 8 7 6 8 10 11 13 15 20 20 22 24 26 28 29 30 31 34 32 29 27 28 31 33 36 30 30 33 32 25 31 37
Wind_Direction_850mb
231 242 236 213 201 202 203 185 200 160 190 198 212 229 232 243 251 256 257 264 264 265 273 275 281 301 307 292 290 297 302 309 317 316 315 308 297 298
236 247 232 216 196 197 197 178 183 177 138 164 200 236 232 241 259 248 248 257 267 273 273 273 286 296 292 282 290 298 303 311 315 314 308 299 333 249
242 235 233 210 193 198 189 175 179 195 212 198 227 249 247 262 273 265 254 260 264 270 271 274 282 285 279 282 288 295 303 308 309 311 301 300 242 253
257 244 242 212 199 202 186 198 217 263 238 244 263 264 272 273 278 264 255 259 266 270 269 271 276 273 273 278 286 296 299 300 302 300 288 261 267 277
250 253 239 224 205 198 193 234 255 251 240 243 256 259 259 264 265 267 264 267 269 272 272 272 264 269 279 285 291 291 294 296 296 291 287 279 269 283
250 229 231 200 176 180 217 232 231 228 235 254 257 263 269 268 267 268 269 271 269 270 274 276 281 280 279 281 281 287 286 287 286 287 291 288 279 270
122 144 155 165 178 190 218 231 231 250 261 257 256 258 260 265 269 275 274 278 283 274 271 275 281 288 291 289 286 276 281 287 286 286 284 283 279 280
148 149 147 147 153 163 178 207 219 222 232 232 253 331 297 288 290 304 290 271 283 276 284 283 283 287 281 284 271 270 281 277 280 280 283 287 287 286
148 142 134 128 139 152 139 137 138 147 156 151 181 172 236 267 272 279 288 261 240 278 281 283 271 287 291 268 284 285 268 270 276 283 292 285 286 286
117 117 126 128 123 117 117 115 127 165 192 221 237 255 285 300 292 275 265 265 282 276 299 307 298 294 286 299 295 299 292 269 274 283 295 290 286 286
122 125 125 117 111 105 101 89 106 115 211 345 356 340 329 354 10 60 10 22 327 317 315 342 307 283 281 280 282 291 310 311 301 302 303 292 283 284
124 116 111 112 114 109 95 92 82 76 48 31 29 27 16 6 12 34 31 14 338 303 325 336 313 324 323 265 272 293 304 305 307 318 316 318 298 288
125 124 114 103 110 148 152 152 151 171 134 63 39 31 25 12 352 355 345 345 330 316 309 318 312 312 305 305 305 312 305 297 288 288 289 294 301 303
121 117 112 102 76 71 86 113 134 109 109 63 36 8 8 0 347 332 345 339 325 314 314 308 305 303 301 299 303 311 304 301 302 298 302 292 302 305
110 97 83 66 62 72 71 80 78 73 65 60 36 1 317 305 327 339 326 320 324 320 313 315 316 310 302 301 302 308 313 315 309 298 306 304 293 292
103 91 73 68 80 78 74 70 65 65 86 81 39 344 325 343 339 339 327 319 338 327 318 319 319 310 311 304 304 305 311 304 305 303 300 296 296 278
102 88 75 83 85 76 65 57 52 55 48 36 319 308 337 345 352 341 349 349 333 322 326 329 316 313 317 309 309 314 310 301 303 310 310 310 313 310
102 76 73 88 92 82 58 43 42 38 24 355 7 9 17 2 349 339 326 324 331 336 332 323 322 330 337 339 311 309 303 307 310 317 321 322 319 312
107 85 77 102 106 80 60 45 25 11 17 15 5 11 6 1 358 335 335 344 343 326 314 318 329 332 331 327 321 318 319 317 317 322 316 311 309 320
117 87 75 101 101 66 47 41 29 20 16 14 17 10 5 358 356 355 349 340 331 324 335 334 321 319 319 317 315 321 321 315 320 316 319 310 302 303
125 100 72 99 79 48 38 40 34 20 3 5 4 357 353 359 354 342 335 334 334 336 332 324 320 319 314 312 312 317 328 335 310 320 324 330 332 324
159 133 49 77 56 37 37 35 31 27 358 354 352 351 351 351 337 337 339 340 339 340 338 336 335 332 332 323 318 321 325 325 320 312 320 322 319 320
255 211 4 58 46 42 41 35 27 355 350 352 355 357 5 357 348 358 356 344 341 333 333 336 337 335 327 322 323 321 317 318 328 325 319 322 314 323